Location: La Trinit�
(48.1620°N, 3.4512°W)
Time: 16:07:07
(UTC+00:00)

Meteor 1-27 Rocket - Pass Details

Date: 08 May 2021
Orbit: 830 x 910 km, 81.3° (Epoch: 15 June)

Event Time Altitude Azimuth Distance (km) Brightness Sun altitude
Exits shadow 22:18:44 37° 152° (SSE) 1,351 4.2 -19.9°
Maximum altitude 22:20:47 56° 95° (E) 1,060 4.0 -20.1°
Drops below altitude 10° 22:26:33 10° 19° (NNE) 2,595 6.8 -20.5°
Sets 22:29:04 0° 15° (NNE) 3,546 7.7 -20.7°
